Weather History for KOJC - May, 2011

Change the Weather History Date:

Friday, May 6, 2011

  Actual Average Record
Temperature  
Mean Temperature 58 °F 62 °F  
Max Temperature 72 °F 71 °F 87 °F (1965)
Min Temperature 44 °F 52 °F 36 °F (1989)
Degree Days  
Heating Degree Days 7 5  
Month to date heating degree days 70 32  
Since 1 July heating degree days 5052 4863  
Cooling Degree Days 0 1  
Month to date cooling degree days 0 6  
Year to date cooling degree days 25 24  
Growing Degree Days 8 (Base 50)    
Moisture  
Dew Point 44 °F    
Average Humidity 62    
Maximum Humidity 89    
Minimum Humidity 34    
Precipitation  
Precipitation 0.00 in 0.19 in 3.50 in (2007)
Month to date precipitation 0.61 1.15  
Year to date precipitation 7.62 10.46  
Sea Level Pressure  
Sea Level Pressure 29.89 in    
Wind  
Wind Speed 11 mph (SSW)    
Max Wind Speed 23 mph    
Max Gust Speed 31 mph    
Visibility 10 miles    
Events      
T = Trace of Precipitation, MM = Missing Value Source: NWS Daily Summary

Daily Weather History Graph

Daily Weather History Graph

Search for Another Location

Airport or City:

Trip Planner

Search our weather history database for the weather conditions in past years. The results will help you decide how hot, cold, wet, or windy it might be!

Date:

Astronomy

May. 06, 2011 Rise Set
Actual Time 6:15 AM CDT 8:16 PM CDT
Civil Twilight 5:46 AM CDT 8:45 PM CDT
Nautical Twilight 5:11 AM CDT 9:20 PM CDT
Astronomical Twilight 4:32 AM CDT 9:59 PM CDT
Moon 8:31 AM CDT (5/6) 11:43 PM CDT (5/6)
Length of Visible Light 14h 58m
Length of Day
14h 00m
Waxing Crescent, 11% of the Moon is Illuminated
May 6
Waxing Crescent
May 10
First Quarter
May 17
Full
May 24
Last Quarter
Jun 1
New

Hourly Weather History & Observations

Time (CDT) Temp. Windchill Dew Point Humidity Pressure Visibility Wind Dir Wind Speed Gust Speed Precip Events Conditions
12:53 AM 46.9 °F - 43.0 °F 86% 30.06 in 10.0 mi WSW 4.6 mph - N/A   Clear
1:53 AM 48.0 °F - 43.0 °F 83% 30.04 in 10.0 mi West 5.8 mph - N/A   Clear
2:53 AM 48.0 °F - 44.1 °F 86% 30.03 in 10.0 mi WSW 5.8 mph - N/A   Clear
3:53 AM 48.0 °F - 43.0 °F 83% 30.02 in 10.0 mi West 4.6 mph - N/A   Clear
4:53 AM 48.9 °F - 42.1 °F 77% 30.02 in 10.0 mi WSW 5.8 mph - N/A   Clear
5:53 AM 44.1 °F 41.5 °F 41.0 °F 89% 30.01 in 10.0 mi SW 4.6 mph - N/A   Clear
6:53 AM 46.0 °F 43.1 °F 42.1 °F 86% 30.01 in 10.0 mi SW 5.8 mph - N/A   Clear
7:53 AM 48.9 °F - 45.0 °F 86% 30.01 in 10.0 mi SSW 4.6 mph - N/A   Clear
8:53 AM 55.0 °F - 46.9 °F 74% 29.99 in 10.0 mi South 5.8 mph - N/A   Clear
9:53 AM 60.1 °F - 46.0 °F 60% 29.98 in 10.0 mi South 6.9 mph - N/A   Clear
10:53 AM 63.0 °F - 45.0 °F 52% 29.97 in 10.0 mi SSW 11.5 mph - N/A   Clear
11:53 AM 66.0 °F - 44.1 °F 45% 29.95 in 10.0 mi South 11.5 mph 19.6 mph N/A   Clear
12:53 PM 68.0 °F - 45.0 °F 43% 29.90 in 10.0 mi South 17.3 mph 23.0 mph N/A   Clear
1:53 PM 68.0 °F - 42.1 °F 39% 29.87 in 10.0 mi South 13.8 mph 25.3 mph N/A   Clear
2:53 PM 72.0 °F - 45.0 °F 38% 29.83 in 10.0 mi South 16.1 mph 23.0 mph N/A   Clear
3:53 PM 72.0 °F - 43.0 °F 35% 29.79 in 10.0 mi South 20.7 mph 29.9 mph N/A   Clear
4:53 PM 72.0 °F - 41.0 °F 33% 29.77 in 10.0 mi South 16.1 mph 26.5 mph N/A   Clear
5:53 PM 72.0 °F - 42.1 °F 34% 29.76 in 10.0 mi South 18.4 mph 31.1 mph N/A   Clear
6:53 PM 71.1 °F - 44.1 °F 38% 29.74 in 10.0 mi South 15.0 mph 20.7 mph N/A   Clear
7:53 PM 66.9 °F - 45.0 °F 45% 29.74 in 10.0 mi South 12.7 mph - N/A   Clear
8:53 PM 64.0 °F - 45.0 °F 50% 29.73 in 10.0 mi SSE 9.2 mph - N/A   Clear
9:53 PM 63.0 °F - 46.0 °F 54% 29.73 in 10.0 mi SSE 11.5 mph - N/A   Clear
10:53 PM 60.1 °F - 46.9 °F 62% 29.73 in 10.0 mi South 9.2 mph - N/A   Clear
11:53 PM 60.1 °F - 48.0 °F 64% 29.72 in 10.0 mi South 8.1 mph - N/A   Clear